Location: Kresge Environmental Education Center
(43.1138°N, 83.2433°W)
Time: 03:39:12
(UTC-04:00)

Daily predictions for brighter satellites

Satellite Brightness Start Highest point End
(mag) Time Altitude Azimuth Time Altitude Azimuth Time Altitude Azimuth
ALOS 2 4.1 00:07:05 24° E 00:07:47 25° ENE 00:11:20 10° NNE
NOSS 3-2 (C) 4.3 00:08:05 31° ESE 00:08:05 31° ESE 00:13:40 10° NE
Cosmos 1544 3.1 00:04:23 10° N 00:07:57 79° N 00:07:57 79° N
H-2A R/B 2.9 00:07:08 30° SW 00:08:45 39° W 00:13:30 10° NNW
Cosmos 1570 Rocket 4.2 00:09:33 10° NNW 00:14:51 62° WSW 00:16:03 49° SSW
Cosmos 1850 Rocket 4.0 00:14:01 46° SSW 00:15:37 81° WNW 00:20:53 10° NNE
Cosmos 1842 Rocket 3.8 00:12:12 10° NNW 00:16:30 58° W 00:17:01 53° SW
Cosmos 2082 Rocket 4.2 00:18:14 13° E 00:18:14 13° E 00:20:13 10° ENE
Cosmos 1707 3.1 00:24:10 59° NE 00:24:10 59° NE 00:27:35 10° NNE
Cosmos 1092 Rocket 4.0 00:22:26 41° SSW 00:24:50 77° W 00:31:09 10° N
Cosmos 1943 Rocket 3.1 00:21:26 10° NW 00:26:25 34° WSW 00:27:40 31° SW
SL-8 R/B 3.6 00:23:35 10° WNW 00:28:27 89° SSW 00:28:56 72° ESE
Cosmos 1140 Rocket 4.3 00:28:27 26° SW 00:31:05 47° WNW 00:36:09 10° N
Cosmos 468 Rocket 4.4 00:29:05 10° NNW 00:34:15 52° ENE 00:35:15 45° ESE
ISS -0.5 00:34:06 10° WNW 00:36:34 19° N 00:39:02 10° NE
Cosmos 1656 Rocket 3.9 00:33:58 10° NNW 00:39:32 57° WSW 00:40:27 51° SW
Meteor 1-24 Rocket 3.9 00:39:20 53° SE 00:40:26 63° E 00:46:17 10° NNE
Cosmos 1814 Rocket 4.4 00:36:33 10° NNW 00:41:45 54° ENE 00:42:46 47° ESE
S3M 4.2 00:36:41 10° N 00:42:51 58° ENE 00:44:21 46° SE
ATLAS 3B R/B 4.4 00:38:09 10° WSW 00:45:00 34° NW 00:51:38 10° NNE
Lacrosse 4 Rocket 4.5 00:48:30 10° WNW 00:49:45 11° NW 00:51:00 10° NNW
Landsat 5 4.0 00:50:14 48° NE 00:50:14 48° NE 00:53:50 10° N
H-2A R/B 2.9 00:46:08 10° NNE 00:49:07 48° NE 00:49:07 48° NE
Cosmos 1378 4.3 00:51:52 37° NE 00:51:52 37° NE 00:54:34 10° NNE
Cosmos 1766 Rocket 3.7 00:51:41 64° ENE 00:51:41 64° ENE 00:55:54 10° NNE
NOSS 3-2 (A) 3.4 00:50:05 54° S 00:51:32 76° ESE 00:58:12 10° NE
COSMOS 2487 3.7 00:52:22 39° NW 00:52:22 39° NW 00:55:29 10° N
Cosmos 1655 Rocket 3.9 00:51:26 53° SSW 00:53:04 86° W 00:59:23 10° N
Cosmos 1733 4.1 00:49:49 10° NNW 00:53:01 42° WNW 00:53:01 42° WNW
Timation 2 Rocket 4.4 00:54:32 48° SE 00:55:45 53° ESE 01:02:22 10° NE
CZ-2C R/B 4.0 00:52:34 10° NE 00:57:08 26° E 00:57:28 26° E
Cosmos 1076 Rocket 3.6 00:57:52 73° NNE 00:57:52 73° NNE 01:01:45 10° N
Cosmos 2221 2.8 00:54:03 10° NNW 00:58:04 60° WNW 00:58:04 60° WNW
Cosmos 1486 Rocket 4.1 00:58:22 55° ESE 00:58:23 55° ESE 01:03:29 10° NNE
Cosmos 1328 Rocket 4.3 00:55:14 10° N 00:59:20 41° ENE 00:59:20 41° ENE
CZ-4C R/B 2.0 00:58:46 67° S 00:59:27 78° ESE 01:05:27 10° NE
Meteor 2-5 Rocket 4.3 00:59:56 38° SW 01:01:46 52° WNW 01:07:25 10° N
Terra 4.3 01:06:13 10° W 01:07:11 11° W 01:08:09 10° WNW
Cosmos 1818 3.5 01:02:08 10° NNW 01:07:40 81° NE 01:08:30 64° SE
Cosmos 2344 3.9 01:07:08 42° SSE 01:08:48 48° ESE 01:16:54 10° NE
Cosmos 1515 Rocket 4.2 01:08:36 10° N 01:12:52 45° ENE 01:12:52 45° ENE
Cosmos 1763 Rocket 3.9 01:08:39 10° NNW 01:13:54 56° ENE 01:14:50 49° ESE
Cosmos 2026 Rocket 4.3 01:13:24 43° SW 01:15:05 56° WNW 01:21:03 10° N
Meteor 2-1 Rocket 4.4 01:09:33 10° NNW 01:15:22 60° W 01:16:20 53° SW
CZ-4B R/B 2.6 01:17:49 43° NW 01:17:49 43° NW 01:20:31 10° NNW
Lacrosse 5 3.3 01:12:58 10° NW 01:17:36 34° NNE 01:21:51 12° E
Cosmos 2369 3.6 01:13:19 10° NNW 01:19:00 84° ENE 01:19:53 65° SE
Cosmos 2228 Rocket 3.1 01:16:33 10° N 01:20:39 76° NNW 01:20:39 76° NNW
Genesis I 4.1 01:19:50 10° NNW 01:23:34 44° NE 01:23:34 44° NE
Meteor 2-2 Rocket 4.5 01:27:36 10° N 01:33:17 63° ENE 01:34:29 51° SE
Cosmos 724 4.4 01:34:02 53° SE 01:34:20 54° ESE 01:40:01 10° NE
Cosmos 405 Rocket 3.7 01:37:20 42° NW 01:37:20 42° NW 01:40:21 10° N
Cosmos 1980 Rocket 3.6 01:34:33 10° N 01:39:37 33° NE 01:42:54 19° ESE
Cosmos 2278 3.8 01:35:49 10° NNW 01:41:21 57° WSW 01:41:41 56° WSW
Cosmos 1908 4.1 01:39:18 10° N 01:42:27 45° NE 01:42:27 45° NE
Cosmos 1867 3.5 01:42:42 68° SW 01:43:25 86° WNW 01:48:57 10° NNE
ALOS 2 3.8 01:44:29 31° W 01:44:29 31° W 01:47:54 10° NNW
Cosmos 1354 Rocket 3.9 01:45:26 73° SSE 01:45:50 77° ESE 01:51:10 10° NNE
Lacrosse 5 rocket 3.9 01:44:08 10° NNW 01:47:29 22° NNE 01:50:56 10° ENE
Cosmos 883 Rocket 4.4 01:43:10 10° N 01:49:33 87° W 01:50:58 57° S
CENTAUR R/B 3.0 01:50:42 40° SE 01:51:21 41° ESE 01:57:36 10° NE
Cosmos 1503 Rocket 3.9 01:51:14 73° S 01:51:43 83° ESE 01:57:04 10° NNE
Cosmos 841 Rocket 3.4 01:49:00 10° NNW 01:54:15 74° WSW 01:54:33 71° SW
Cosmos 2058 4.4 01:54:35 27° E 01:54:35 27° E 01:57:59 10° NNE
Helios 1A Rocket 3.8 01:50:41 10° N 01:54:23 42° WNW 01:54:23 42° WNW
BREEZE-M DEB (TANK) 4.1 01:56:11 18° NW 01:57:48 36° NNE 02:02:54 10° E
Nadezhda 2 Rocket 4.5 01:56:22 55° SSE 01:57:51 77° E 02:04:09 10° N
NOSS 3-2 (C) 4.1 01:55:29 29° WSW 01:58:36 53° NW 02:05:14 10° NNE
Cosmos 1441 Rocket 3.7 02:00:22 58° NE 02:00:22 58° NE 02:03:42 10° NNE
Cosmos 1697 Rocket 2.8 01:54:15 10° NNW 01:59:56 73° ENE 02:01:24 50° SE
Cosmos 2082 Rocket 2.1 02:00:04 65° SSW 02:00:58 87° WNW 02:06:41 10° NNE
Cosmos 1437 Rocket 3.3 01:57:31 10° N 02:00:53 56° NE 02:00:53 56° NE
Meteor 2-20 Rocket 4.4 02:01:54 57° SSW 02:03:15 79° W 02:09:27 10° N
Cosmos 1151 Rocket 3.0 02:02:04 10° N 02:06:00 73° NNW 02:06:00 73° NNW
CZ-2C R/B 3.2 02:05:11 55° SE 02:06:25 77° ENE 02:12:10 10° N
Cosmos 2151 3.2 02:06:59 63° ENE 02:06:59 63° ENE 02:10:58 10° NNE
Cosmos 1833 Rocket 2.5 02:07:07 65° S 02:07:58 83° ESE 02:13:39 10° NNE
ISS -0.7 02:11:14 10° NW 02:13:50 21° NNE 02:16:26 10° ENE
ASTEX 1 3.6 02:11:31 10° NNE 02:16:27 61° E 02:17:04 56° SE
MOS 1-B Rocket 4.4 02:17:02 45° SSW 02:19:27 67° WSW 02:26:08 10° NNW
Cosmos 1726 3.6 02:16:14 10° NNE 02:19:30 29° ENE 02:19:41 29° E
Cosmos 332 Rocket 4.4 02:15:50 10° N 02:20:31 50° ENE 02:21:55 37° ESE
Cosmos 2315 Rocket 4.0 02:16:08 10° NNW 02:22:24 69° W 02:23:53 52° SSW
Cosmos 1674 3.4 02:25:43 48° NW 02:25:43 48° NW 02:28:49 10° N
Cosmos 1656 3.8 02:21:53 10° NNW 02:27:26 53° WSW 02:27:54 52° SW
Cosmos 1745 Rocket 4.4 02:29:28 37° SSE 02:31:45 56° E 02:37:55 10° NNE
Sich 1 3.6 02:31:28 45° ESE 02:31:53 47° E 02:36:09 10° NNE
Nadezhda 1 Rocket 4.4 02:31:04 10° N 02:37:07 55° ENE 02:40:01 30° SE
CZ-2C R/B 3.4 02:32:20 10° N 02:37:35 44° WNW 02:38:59 37° WSW
Iridium 2 3.8 02:40:07 69° NNW 02:40:07 69° NNW 02:43:33 10° N
Meteor 1-27 4.3 02:36:45 10° N 02:42:39 82° E 02:44:37 44° SSE
SL-16 R/B 3.4 02:37:28 10° NNW 02:42:48 39° ENE 02:48:06 10° SE
Cosmos 405 3.9 02:39:26 10° NNW 02:42:06 42° NW 02:42:06 42° NW
CZ-4C R/B 4.2 02:44:09 10° W 02:48:44 25° NNW 02:53:46 10° NNE
Aureole 1 Rocket 3.8 02:44:54 10° NNW 02:49:33 54° WSW 02:50:20 50° SW
SL-14 R/B 3.2 02:51:16 72° E 02:51:16 72° E 02:55:05 10° NNE
Cosmos 1328 4.4 02:53:28 44° WNW 02:53:28 44° WNW 02:57:11 10° N
Cosmos 2322 Rocket 2.9 02:49:01 10° NNW 02:54:31 51° ENE 02:59:24 13° SE
Cosmos 540 Rocket 3.6 02:51:41 10° NNW 02:56:44 54° WSW 02:57:19 51° SW
Lacrosse 5 1.9 02:55:50 10° NW 03:00:46 55° SW 03:00:56 55° SW
PSLV R/B 3.6 02:57:52 10° NNE 03:02:29 87° W 03:03:15 61° SSW
Cosmos 1703 3.6 03:02:50 52° SE 03:03:19 57° E 03:07:13 10° NNE
USA 215 3.5 02:59:48 10° NE 03:06:13 56° SE 03:08:41 37° S
Cosmos 1271 Rocket 3.5 03:05:28 10° N 03:09:08 45° ENE 03:10:13 35° ESE
Abrixas 4.1 03:09:24 29° NW 03:10:04 33° N 03:12:56 10° ENE
Cosmos 371 Rocket 3.2 03:06:43 10° NNW 03:11:35 82° WSW 03:13:03 45° S
CZ-2D R/B 4.3 03:15:52 10° NE 03:19:17 17° E 03:22:44 10° SE
Cosmos 1437 4.0 03:19:57 32° WNW 03:19:57 32° WNW 03:22:41 10° N
Cosmos 1980 Rocket 2.7 03:18:28 10° NW 03:23:40 39° WSW 03:24:37 36° SW
BREEZE-M DEB (TANK) 3.8 03:18:29 10° WNW 03:24:21 37° N 03:26:54 10° ENE
Cosmos 2360 Rocket 3.8 03:19:18 10° N 03:24:25 34° NE 03:29:31 10° ESE
ERS-2 2.0 03:21:40 10° NNE 03:25:24 84° WNW 03:25:52 66° SSW
IRAS Rocket 4.2 03:20:38 10° NNE 03:26:08 74° WNW 03:28:20 37° SSW
Lacrosse 5 rocket 1.4 03:22:54 10° NW 03:27:17 88° NE 03:31:50 10° SE
Cosmos 2242 Rocket 3.9 03:23:21 10° NNW 03:27:35 47° W 03:28:12 44° WSW
NPP 3.6 03:24:15 10° NNE 03:29:40 87° ESE 03:32:03 35° SSW
Cosmos 1633 Rocket 3.7 03:29:41 37° WSW 03:30:32 41° WNW 03:34:46 10° N
Cosmos 1300 4.1 03:27:35 10° NW 03:30:23 25° W 03:30:23 25° W
Cosmos 2058 4.3 03:30:49 23° W 03:31:22 24° WNW 03:34:47 10° NNW
deb Kosmos-1763 4.1 03:31:42 58° SW 03:32:21 78° WNW 03:36:14 10° NNE
Meteor 1-4 Rocket 2.5 03:29:12 10° N 03:32:59 86° W 03:33:52 52° S
Meteor 2-10 4.0 03:30:27 10° NNW 03:35:42 74° W 03:38:21 31° S
Cosmos 2181 Rocket 4.1 03:33:00 10° N 03:39:11 76° E 03:44:14 16° SSE
AQUA 3.7 03:34:31 10° NNE 03:39:19 90° E 03:41:19 35° SSW
OAO 3 Rocket 4.0 03:40:40 30° SSE 03:40:40 30° SSE 03:44:16 10° ESE
Cosmos 968 Rocket 3.8 03:39:31 33° SW 03:41:30 53° WNW 03:46:34 10° NNE
CENTAUR R/B 3.4 03:37:51 20° WSW 03:41:57 44° NW 03:48:39 10° NNE
Cosmos 2292 Rocket 3.5 03:41:40 36° SE 03:42:34 50° E 03:46:07 10° NNE
Cosmos 1697 Rocket 4.3 03:39:50 10° WNW 03:43:06 16° W 03:43:06 16° W
Cosmos 2082 Rocket 4.3 03:42:27 10° W 03:45:56 16° NW 03:49:26 10° N
Cosmos 1703 Rocket 4.5 03:42:51 10° N 03:47:04 46° ENE 03:51:02 11° SSE
ISS -3.1 03:47:26 10° NW 03:50:42 72° NNE 03:53:56 10° ESE
Cosmos 1470 Rocket 3.9 03:49:23 36° SW 03:50:51 51° WNW 03:55:11 10° N
Cosmos 1726 4.0 03:52:12 10° NW 03:54:21 17° W 03:54:21 17° W
Cosmos 1933 Rocket 4.0 03:53:52 33° SW 03:55:21 47° WNW 03:59:38 10° N
IRS-1C 4.1 03:51:58 10° NNE 03:57:20 79° WNW 04:00:24 26° SSW
Cosmos 1455 2.3 03:54:24 10° NNW 03:58:06 52° W 03:59:10 38° SW
ATLAS 5 CENTAUR R/B 2.1 03:55:40 28° SSW 03:58:08 61° ESE 04:03:18 10° NE
BREEZE-M DEB (TANK) 4.2 03:56:53 10° W 04:07:52 67° N 04:11:32 10° E
Resurs 1-4 Rocket 2.9 04:04:08 10° NNE 04:09:18 49° E 04:14:13 11° S
Cosmos 2074 Rocket 4.4 04:03:56 12° S 04:09:39 64° E 04:15:50 10° NNE
Spot 4 Rocket 4.0 04:05:01 10° NNE 04:10:12 83° WNW 04:13:36 22° SSW
Cosmos 923 Rocket 4.1 04:05:11 10° NNW 04:10:19 53° WSW 04:14:12 17° S
Okean 1-7 3.8 04:06:21 10° N 04:10:40 52° ENE 04:14:54 10° SSE
COSMOS 2428 4.1 04:08:08 10° NNW 04:13:30 41° ENE 04:18:50 10° SE
Cosmos 1833 4.3 04:10:11 21° SSW 04:14:10 76° ESE 04:19:56 10° NNE
SL-08 R/B 4.2 04:12:32 25° SW 04:14:20 32° W 04:18:43 10° NNW
USA 161 1.6 04:14:46 39° W 04:14:46 39° W 04:16:48 10° NNW
Cosmos 2184 Rocket 4.3 04:09:43 11° S 04:15:45 69° E 04:22:04 10° NNE
Cosmos 1626 3.0 04:15:37 27° WSW 04:16:56 35° WNW 04:20:26 10° N
SL-16 R/B 2.6 04:11:36 10° SSE 04:17:51 83° ENE 04:24:10 10° NNW
Cosmos 1680 Rocket 3.5 04:14:06 10° NNW 04:19:13 58° WSW 04:24:19 10° S
GENESIS II 4.2 04:16:22 10° NW 04:20:31 86° WSW 04:24:34 10° SSE
GPS 2-05 Rocket1 4.1 04:24:25 22° S 04:24:40 22° S 04:27:21 10° ESE
SL-16 R/B 2.9 04:21:48 10° NW 04:26:47 32° WSW 04:30:22 17° SSW
UNKNOWN OBJECT B 3.5 04:26:08 10° NNE 04:29:51 49° E 04:33:38 10° S
SME Rocket 4.2 04:24:51 10° SSE 04:31:08 60° ENE 04:35:32 10° N
Okean O Rocket 3.1 04:27:17 10° NNE 04:31:19 33° E 04:35:18 10° SSE
Cosmos 1869 4.5 04:28:53 10° NNW 04:32:11 26° W 04:33:46 20° SW
MTI 3.9 04:30:59 10° SSE 04:34:20 86° E 04:37:43 10° NNW
ARIANE 5 R/B 2.5 04:31:21 10° N 04:36:26 69° WNW 04:40:39 15° SSW
Cosmos 2322 Rocket 3.3 04:33:48 10° NW 04:38:11 24° WSW 04:41:08 16° SW
IRS-1D 3.6 04:35:11 10° N 04:40:32 72° WNW 04:45:18 13° SSW
Meteor 2-3 Rocket 4.1 04:38:38 10° S 04:44:21 69° E 04:50:09 10° NNE
Cosmos 2219 Rocket 3.9 04:41:12 10° N 04:46:23 37° ENE 04:51:31 10° SE
Abrixas 4.4 04:43:50 10° WNW 04:46:40 32° N 04:49:30 10° ENE
USA 215 3.9 04:42:54 10° NE 04:49:11 52° NNW 04:55:28 10° WSW
BREEZE-M DEB (TANK) 3.8 04:40:00 14° SW 04:49:25 51° SSE 04:52:59 10° ENE
Cosmos 1898 Rocket 3.5 04:44:57 11° SSW 04:49:57 84° ESE 04:55:09 10° NNE
H-2A R/B 4.0 04:44:34 13° WSW 04:50:01 43° S 05:23:23 10° ESE
Cosmos 2221 Rocket 4.3 04:47:59 10° NNW 04:52:07 36° W 04:56:08 11° SSW
Cosmos 389 Rocket 3.2 04:48:49 10° N 04:52:29 59° ENE 04:56:08 10° SSE
EO 1 Del DPAF 4.2 04:51:49 12° SSW 04:54:53 30° W 04:58:23 10° NW
Cosmos 1869 Rocket 4.1 04:52:45 13° SW 04:56:20 41° WNW 05:00:33 10° N
Cosmos 1937 Rocket 3.8 04:51:12 10° S 04:56:28 69° ESE 05:01:45 10° NNE
CZ-2D R/B 2.2 04:54:36 10° N 04:59:46 62° WNW 05:05:00 10° SSW
ATLAS CENTAUR R/B 1.5 04:59:14 10° NW 05:03:56 78° WSW 05:08:15 10° SSE
PSLV R/B 4.1 05:00:12 10° NNE 05:04:09 72° ESE 05:08:10 10° S
Lacrosse 5 rocket 3.2 05:03:42 10° W 05:06:04 14° WSW 05:08:28 10° SSW
Cosmos 2150 Rocket 4.2 05:02:37 10° SSW 05:07:53 66° WNW 05:13:16 10° NNE
Cosmos 2360 Rocket 2.7 05:03:17 10° NW 05:08:26 37° WSW 05:13:33 10° S
CZ-4B R/B 3.8 05:07:03 10° NNE 05:11:00 51° E 05:15:08 10° S
CZ-2D R/B 3.4 05:07:20 10° N 05:11:30 73° WNW 05:15:32 10° SSW
Cosmos 2227 Rocket 3.8 05:07:59 10° SSE 05:12:56 33° ESE 05:17:55 10° NE
In-Cosmos 22 Rocket 4.2 05:09:13 10° SSW 05:14:28 62° WNW 05:19:52 10° N
Meteor 2-10 Rocket 3.6 05:12:12 10° N 05:17:17 86° E 05:22:28 10° S
CZ-4B R/B 3.4 05:12:44 10° NNE 05:18:13 80° ESE 05:23:46 10° SSW
Cosmos 1782 3.5 05:14:19 10° N 05:18:18 59° E 05:22:14 10° SSE
Cosmos 292 Rocket 3.8 05:17:11 10° NNW 05:21:57 63° WSW 05:26:39 10° S
Cosmos 2333 4.2 05:17:13 10° NNW 05:22:52 76° WSW 05:28:31 10° SSE
OAO 3 Rocket 4.4 05:19:24 10° WSW 05:23:03 23° SSW 05:26:43 10° SE
CZ-2C R/B 3.9 05:19:25 10° S 05:23:47 51° W 05:28:15 10° NNW
Cosmos 2219 3.6 05:20:44 10° SW 05:26:19 54° WNW 05:31:59 10° NNE
Cosmos 2341 Rocket 4.1 05:22:04 10° S 05:28:23 82° W 05:34:47 10° N
